#timestamp,LO_Frequency,Hit,StdDev 
1511035215.2,286047001.5,N
1511035235.9,286047003.4,N
1511035255.7,286047002.4,N
1511035275.6,286047002.2,N
1511035295.4,286046999.7,N
1511035315.2,286047003.9,N
1511035335.0,286047000.5,N
1511035335.9,286047000.5,N
1511035355.8,286046999.1,N
1511035375.6,286046998.8,N
1511035395.4,286047001.3,N
1511035415.3,286047007.2,N
1511035435.1,286047004.0,N
1511035455.8,286047003.5,N
1511035475.7,286047004.0,N
1511035495.5,286047002.5,N
1511035515.3,286047004.1,N
1511035535.2,286047000.3,N
1511035555.9,286046998.2,N
1511035575.7,286046997.7,N
1511035595.6,286046994.3,N
1511035615.4,286046992.0,N
1511035635.2,286047001.0,N
1511035655.1,286047005.8,N
1511035656.0,286047005.8,N
1511035675.8,286047006.3,N
1511035695.6,286047004.9,N
1511035715.4,286047005.8,N
1511035735.3,286047003.4,N
1511035755.1,286047002.3,N
1511035775.8,286047001.4,N
1511035795.7,286046999.8,N
1511035815.5,286047004.1,N
1511035835.3,286047002.9,N
1511035855.2,286047007.4,N
1511035875.9,286047007.5,N
1511035895.7,286047006.9,N
1511035915.6,286047008.5,N
1511035935.4,286047011.4,N
1511035955.2,286047005.0,N
1511035975.0,286047007.3,N
1511035976.0,286047007.3,N
1511035995.8,286047007.7,N
1511036015.6,286047008.0,N
1511036035.4,286047012.0,N
1511036055.3,286047011.6,N
1511036075.1,286047013.8,N
1511036095.8,286047015.2,Y
1511036115.7,286047009.7,P
1511036135.5,286047008.5,P
1511036155.3,286047007.9,P
1511036175.2,286047010.7,Y
1511036195.0,286047000.2,P
1511036195.9,286047000.2,N
1511036215.7,286046998.5,N
1511036235.6,286046996.8,N
1511036255.4,286046995.4,N
1511036275.2,286046995.7,N
1511036295.1,286046995.6,N
1511036296.0,286046995.6,N
1511036315.8,286046996.4,N
1511036335.6,286046998.0,N
1511036355.5,286046996.5,N
1511036375.3,286047000.4,N
1511036395.1,286046999.8,N
1511036415.9,286046999.7,N
1511036435.7,286046999.2,N
1511036455.5,286047001.5,N
1511036475.3,286047005.3,N
1511036495.2,286047001.9,N
1511036515.0,286047005.5,N
1511036515.9,286047005.5,N
1511036535.7,286047010.0,N
1511036555.6,286047008.1,N
1511036575.4,286047006.0,N
1511036595.2,286047004.7,N
1511036615.1,286047010.1,N
1511036616.0,286047010.1,N
1511036635.8,286047006.9,N
1511036655.6,286047005.4,N
1511036675.5,286047008.8,N
1511036695.3,286047004.5,N
1511036715.1,286047008.4,N
1511036735.9,286047001.6,N
1511036755.7,286047002.1,N
1511036775.5,286047004.0,N
1511036795.3,286046999.7,N
1511036815.2,286047000.3,N
1511036835.0,286046999.3,N
1511036835.9,286046999.3,N
1511036855.7,286046997.4,N
1511036875.6,286047000.4,N
1511036895.4,286047004.5,N
1511036915.2,286047007.7,N
1511036935.1,286047007.9,N
1511036936.0,286047007.9,N
1511036955.8,286047010.8,N
1511036975.6,286047009.6,N
1511036995.5,286047007.7,N
1511037015.3,286047008.5,N
1511037035.1,286047010.8,N
1511037055.9,286047008.6,N
1511037075.7,286047007.7,N
1511037095.5,286047009.3,N
1511037115.3,286047010.7,N
1511037135.2,286047008.4,N
1511037155.0,286047007.7,N
1511037155.9,286047007.7,N
1511037175.7,286047007.7,N
1511037195.6,286047004.8,N
1511037215.4,286047003.0,N
1511037235.2,286047005.3,N
1511037255.1,286047005.5,N
1511037256.0,286047005.5,N
1511037275.8,286046999.7,N
1511037295.6,286046998.1,N
1511037315.5,286047001.9,N
1511037335.3,286047002.4,N
1511037355.1,286046999.6,N
1511037375.9,286046999.5,N
1511037395.7,286046995.2,N
1511037415.5,286046991.0,N
1511037435.4,286046994.5,N
1511037455.2,286046988.9,N
1511037475.0,286046987.0,N
1511037475.9,286046987.0,N
1511037495.8,286046990.0,N
1511037515.6,286046993.9,N
1511037535.4,286046995.7,N
1511037555.2,286046992.6,N
1511037575.1,286046989.9,N
1511037576.0,286046989.9,N
1511037595.8,286046988.2,N
1511037615.6,286046987.4,N
1511037635.5,286046987.6,N
1511037655.3,286046985.1,N
1511037675.1,286046985.4,N
1511037695.9,286046985.3,N
1511037715.7,286046994.5,N
1511037735.5,286047002.1,N
1511037755.4,286047001.2,N
1511037775.2,286047002.7,N
1511037795.0,286047005.1,N
1511037795.9,286047005.1,N
1511037815.8,286047005.9,N
1511037835.6,286047002.7,N
1511037855.4,286047004.1,N
1511037875.3,286047001.7,N
1511037895.1,286047003.4,N
1511037896.0,286047003.4,N
1511037915.8,286047002.1,N
1511037935.7,286046998.7,N
1511037955.5,286046996.4,N
1511037975.3,286046994.9,N
1511037995.2,286046997.6,N
1511038015.9,286046999.0,N
1511038035.7,286047001.8,N
1511038055.6,286047002.9,N
1511038075.4,286047002.3,N
1511038095.2,286047004.0,N
1511038115.1,286047002.3,N
1511038116.0,286047002.3,N
1511038135.8,286047001.2,N
1511038155.6,286046998.2,N
1511038175.5,286047002.7,N
1511038195.3,286046996.6,N
1511038215.1,286046996.6,N
1511038235.8,286047002.8,N
1511038255.7,286047003.4,N
1511038275.5,286047005.8,N
1511038295.3,286047002.6,N
1511038315.2,286047000.6,N
1511038335.9,286047001.4,N
1511038355.7,286046999.4,N
1511038375.6,286046997.3,N
1511038395.4,286046998.7,N
1511038415.2,286046996.5,N
1511038435.1,286047000.7,N
1511038436.0,286047000.7,N
1511038455.8,286047004.0,N
1511038475.6,286047002.4,N
1511038495.5,286047001.5,N
1511038515.3,286047001.0,N
1511038535.1,286046998.9,N
1511038555.8,286047000.7,N
1511038575.7,286046998.8,N
1511038595.5,286046998.5,N
1511038615.3,286046996.8,N
1511038635.2,286046995.8,N
1511038655.9,286046997.8,N
1511038675.7,286046995.8,N
1511038695.6,286046997.5,N
1511038715.4,286046997.4,N
1511038735.2,286046998.0,N
1511038755.1,286046993.4,N
1511038756.0,286046993.4,N
1511038775.8,286046995.8,N
1511038795.6,286046997.8,N
